Stündliche Wetter Holoblin

Heute, 15 Juni, Dienstag

Zeit Temperatur Niederschläge Wind Luftdruck Luftfeuchtigkeit
00:00 +15°C° 0 mm 0 m/S 748 mmHg 91%
01:00 +15°C° 0 mm 0 m/S 747 mmHg 91%
02:00 +14°C° 0 mm 0 m/S 747 mmHg 91%
03:00 +16°C° 0 mm 1 m/S 747 mmHg 91%
04:00 +16°C° 0 mm 1 m/S 747 mmHg 92%
05:00 +16°C° 0 mm 1 m/S 747 mmHg 92%
06:00 +19°C° 0 mm 1 m/S 747 mmHg 86%
07:00 +20°C° 0 mm 1 m/S 747 mmHg 81%
08:00 +22°C° 0 mm 1 m/S 747 mmHg 76%
09:00 +23°C° 0 mm 2 m/S 747 mmHg 71%
10:00 +24°C° 0 mm 2 m/S 747 mmHg 67%
11:00 +25°C° 0 mm 2 m/S 747 mmHg 63%
12:00 +25°C° 0.1 mm 2 m/S 747 mmHg 63%
13:00 +25°C° 0.1 mm 3 m/S 746 mmHg 62%
14:00 +25°C° 0.1 mm 3 m/S 746 mmHg 62%
15:00 +25°C° 0.2 mm 3 m/S 746 mmHg 66%
16:00 +24°C° 0.2 mm 3 m/S 746 mmHg 70%
17:00 +24°C° 0.2 mm 3 m/S 745 mmHg 75%
18:00 +21°C° 0 mm 3 m/S 745 mmHg 79%
19:00 +20°C° 0 mm 2 m/S 745 mmHg 82%
20:00 +19°C° 0 mm 2 m/S 745 mmHg 86%
21:00 +18°C° 0 mm 2 m/S 745 mmHg 87%
22:00 +16°C° 0 mm 2 m/S 745 mmHg 87%
23:00 +15°C° 0 mm 2 m/S 746 mmHg 88%

Morgen, 16 Juni, Mittwoch

Zeit Temperatur Niederschläge Wind Luftdruck Luftfeuchtigkeit
00:00 +15°C° 0 mm 2 m/S 746 mmHg 88%
01:00 +14°C° 0 mm 2 m/S 746 mmHg 87%
02:00 +13°C° 0 mm 3 m/S 746 mmHg 87%
03:00 +14°C° 0 mm 2 m/S 746 mmHg 89%
04:00 +15°C° 0 mm 2 m/S 746 mmHg 90%
05:00 +15°C° 0 mm 2 m/S 746 mmHg 91%
06:00 +17°C° 0 mm 2 m/S 747 mmHg 87%
07:00 +18°C° 0 mm 2 m/S 747 mmHg 82%
08:00 +20°C° 0 mm 3 m/S 747 mmHg 77%
09:00 +21°C° 0 mm 3 m/S 747 mmHg 74%
10:00 +22°C° 0 mm 3 m/S 748 mmHg 70%
11:00 +24°C° 0 mm 3 m/S 748 mmHg 66%
12:00 +24°C° 0.2 mm 3 m/S 748 mmHg 66%
13:00 +24°C° 0.2 mm 3 m/S 748 mmHg 66%
14:00 +23°C° 0.2 mm 4 m/S 748 mmHg 66%
15:00 +23°C° 0 mm 4 m/S 748 mmHg 67%
16:00 +23°C° 0 mm 4 m/S 748 mmHg 67%
17:00 +23°C° 0 mm 4 m/S 748 mmHg 67%
18:00 +21°C° 0 mm 3 m/S 749 mmHg 73%
19:00 +20°C° 0 mm 3 m/S 749 mmHg 78%
20:00 +18°C° 0 mm 3 m/S 749 mmHg 84%
21:00 +17°C° 0 mm 3 m/S 750 mmHg 82%
22:00 +16°C° 0 mm 3 m/S 750 mmHg 81%
23:00 +14°C° 0 mm 3 m/S 750 mmHg 80%

übermorgen, 17 Juni, Donnerstag

Zeit Temperatur Niederschläge Wind Luftdruck Luftfeuchtigkeit
00:00 +14°C° 0 mm 3 m/S 751 mmHg 81%
01:00 +14°C° 0 mm 2 m/S 751 mmHg 82%
02:00 +14°C° 0 mm 2 m/S 751 mmHg 83%
03:00 +14°C° 0 mm 2 m/S 752 mmHg 82%
04:00 +14°C° 0 mm 2 m/S 752 mmHg 81%
05:00 +14°C° 0 mm 2 m/S 752 mmHg 80%
06:00 +16°C° 0 mm 2 m/S 753 mmHg 75%
07:00 +18°C° 0 mm 3 m/S 753 mmHg 70%
08:00 +20°C° 0 mm 3 m/S 753 mmHg 65%
09:00 +21°C° 0 mm 3 m/S 753 mmHg 60%
10:00 +22°C° 0 mm 3 m/S 754 mmHg 55%
11:00 +24°C° 0 mm 3 m/S 754 mmHg 50%
12:00 +25°C° 0 mm 3 m/S 754 mmHg 49%
13:00 +25°C° 0 mm 3 m/S 754 mmHg 48%
14:00 +26°C° 0 mm 3 m/S 754 mmHg 47%
15:00 +25°C° 0 mm 2 m/S 754 mmHg 51%
16:00 +25°C° 0 mm 2 m/S 754 mmHg 55%
17:00 +25°C° 0 mm 2 m/S 754 mmHg 59%
18:00 +23°C° 0 mm 2 m/S 754 mmHg 66%
19:00 +20°C° 0 mm 2 m/S 754 mmHg 72%
20:00 +19°C° 0 mm 2 m/S 754 mmHg 79%
21:00 +18°C° 0 mm 2 m/S 755 mmHg 80%
22:00 +17°C° 0 mm 2 m/S 755 mmHg 81%
23:00 +16°C° 0 mm 2 m/S 755 mmHg 82%

18 Juni, Freitag

Zeit Temperatur Niederschläge Wind Luftdruck Luftfeuchtigkeit
00:00 +15°C° 0 mm 2 m/S 755 mmHg 84%
01:00 +15°C° 0 mm 2 m/S 755 mmHg 87%
02:00 +14°C° 0 mm 2 m/S 755 mmHg 89%
03:00 +14°C° 0 mm 2 m/S 756 mmHg 88%
04:00 +15°C° 0 mm 2 m/S 756 mmHg 87%
05:00 +15°C° 0 mm 2 m/S 756 mmHg 86%
06:00 +17°C° 0 mm 2 m/S 756 mmHg 80%
07:00 +19°C° 0 mm 2 m/S 756 mmHg 74%
08:00 +20°C° 0 mm 3 m/S 756 mmHg 68%
09:00 +21°C° 0 mm 3 m/S 756 mmHg 63%
10:00 +22°C° 0 mm 3 m/S 756 mmHg 58%
11:00 +24°C° 0 mm 3 m/S 756 mmHg 54%
12:00 +25°C° 0 mm 3 m/S 756 mmHg 53%
13:00 +25°C° 0 mm 3 m/S 756 mmHg 52%
14:00 +26°C° 0 mm 3 m/S 756 mmHg 51%
15:00 +26°C° 0 mm 3 m/S 756 mmHg 55%
16:00 +25°C° 0 mm 3 m/S 755 mmHg 59%
17:00 +25°C° 0 mm 2 m/S 755 mmHg 62%
18:00 +24°C° 0 mm 2 m/S 755 mmHg 69%
19:00 +21°C° 0 mm 2 m/S 755 mmHg 75%
20:00 +19°C° 0 mm 2 m/S 755 mmHg 81%
21:00 +18°C° 0 mm 2 m/S 755 mmHg 84%
22:00 +18°C° 0 mm 2 m/S 755 mmHg 87%
23:00 +17°C° 0 mm 2 m/S 756 mmHg 90%

19 Juni, Samstag

Zeit Temperatur Niederschläge Wind Luftdruck Luftfeuchtigkeit
00:00 +16°C° 0 mm 2 m/S 756 mmHg 91%
01:00 +16°C° 0 mm 2 m/S 756 mmHg 92%
02:00 +15°C° 0 mm 2 m/S 756 mmHg 93%
03:00 +16°C° 0 mm 2 m/S 756 mmHg 93%
04:00 +16°C° 0 mm 2 m/S 756 mmHg 92%
05:00 +16°C° 0 mm 2 m/S 756 mmHg 92%
06:00 +18°C° 0 mm 2 m/S 756 mmHg 85%
07:00 +19°C° 0 mm 2 m/S 756 mmHg 79%
08:00 +21°C° 0 mm 2 m/S 756 mmHg 72%
09:00 +22°C° 0 mm 3 m/S 756 mmHg 67%
10:00 +24°C° 0 mm 3 m/S 756 mmHg 63%
11:00 +25°C° 0 mm 3 m/S 756 mmHg 58%
12:00 +26°C° 0 mm 3 m/S 756 mmHg 56%
13:00 +26°C° 0 mm 3 m/S 756 mmHg 55%
14:00 +26°C° 0 mm 3 m/S 755 mmHg 54%
15:00 +26°C° 0 mm 3 m/S 755 mmHg 57%
16:00 +26°C° 0 mm 3 m/S 755 mmHg 60%
17:00 +26°C° 0 mm 3 m/S 755 mmHg 63%
18:00 +24°C° 0 mm 3 m/S 755 mmHg 69%
19:00 +21°C° 0 mm 2 m/S 755 mmHg 75%
20:00 +20°C° 0 mm 2 m/S 754 mmHg 81%
21:00 +19°C° 0 mm 2 m/S 754 mmHg 83%
22:00 +18°C° 0 mm 2 m/S 755 mmHg 85%
23:00 +17°C° 0 mm 2 m/S 755 mmHg 87%

20 Juni, Sonntag

Zeit Temperatur Niederschläge Wind Luftdruck Luftfeuchtigkeit
00:00 +16°C° 0 mm 2 m/S 755 mmHg 89%
01:00 +16°C° 0 mm 2 m/S 755 mmHg 90%
02:00 +16°C° 0 mm 2 m/S 755 mmHg 92%
03:00 +16°C° 0 mm 2 m/S 755 mmHg 91%
04:00 +16°C° 0 mm 2 m/S 755 mmHg 91%
05:00 +17°C° 0 mm 2 m/S 755 mmHg 91%
06:00 +18°C° 0 mm 2 m/S 755 mmHg 85%
07:00 +20°C° 0 mm 2 m/S 755 mmHg 80%
08:00 +23°C° 0 mm 2 m/S 755 mmHg 74%
09:00 +24°C° 0 mm 3 m/S 754 mmHg 69%
10:00 +25°C° 0 mm 3 m/S 754 mmHg 64%
11:00 +26°C° 0 mm 3 m/S 754 mmHg 60%
12:00 +26°C° 0 mm 3 m/S 754 mmHg 57%
13:00 +27°C° 0 mm 3 m/S 754 mmHg 55%
14:00 +27°C° 0 mm 3 m/S 753 mmHg 52%
15:00 +27°C° 0 mm 3 m/S 753 mmHg 55%
16:00 +27°C° 0 mm 3 m/S 753 mmHg 59%
17:00 +26°C° 0 mm 3 m/S 753 mmHg 62%
18:00 +25°C° 0 mm 2 m/S 753 mmHg 67%
19:00 +23°C° 0 mm 2 m/S 753 mmHg 73%
20:00 +20°C° 0 mm 2 m/S 753 mmHg 79%
21:00 +20°C° 0 mm 2 m/S 753 mmHg 81%
22:00 +19°C° 0 mm 2 m/S 753 mmHg 84%
23:00 +18°C° 0 mm 2 m/S 753 mmHg 87%
Mehr zeigen

Wir brauchen deine Erlaubnis

Meteoprog und unser Service Anbieter werden persönliche Daten aufbewahren, so wie Cookies, Geräte Bezeichnung oder ähnliche Technologien von deinem Gerät und Prozess, so wie Persönliche Daten Inhalte und Werbungen, genauso wie social Media und den Verkehr zu analysieren.

  • Aufbewahrung und/oder Zugang zu deiner Geräte Informationen.

    Cookies, Geräte Bezeichnung oder andere Informationen, können aufbewahrt oder Zugang zu deinem Gerät erhalten, für den Grund, der oben angegeben wird.

  • Personalisierte Werbung und Inhalte, Messungen, Einblick in das Publikum und Produkt Entwicklung.

    Werbungen und Inhalte können personalisiert werden, basierend auf ein Profil. Mehr Daten können besser personalisierte Werbungen und Inhalte hinzufügen. Werbung und Inhalte können gezeigt und gemessen werden. Einblicke über das Publikum, welche die Werbung gesehen haben und den Inhalt, können abgeleitet werden. So wie Daten können genutzt werden, um es zu verbessern oder die Benutzer Erfahrung zu verbessern das System und die Software.

Wenn du “Ich stimme zu” klickst, erlaubst du uns, die Cookies zu benutzen die Geräte Bezeichnung, den Web oder ähnliche Technologien zu benutzen. Deine Settings, können in deinem Gerät bei deinem Browser geändert werden.

Für den bestimmten Zweck, berechtigten Interessen beruhen darauf, mehr als auf den Inhalt. Du kannst mehr darüber in unseren Privaten und Cookie Politik lesen.